Home   Weather   Mostar   Past weeks

Flag for Bosnia-Herzegovina Past Weather in Mostar, Bosnia-Herzegovina — Yesterday and Last 2 Weeks

Now
66 °F

Sunny.


Feels Like: 66 °F
Forecast: 38 / 63 °F
Wind: 3 mph from North

Location: Mostar

Current Time: Apr 24, 2017 at 1:57:24 pm

Latest Report: Apr 24, 2017 at 1:00 pm


Visibility: 10 mi

Pressure: 30.12 "Hg

Humidity: 28%

Dew Point: 32 °F

Location of MostarLocation

Past Weather in Mostar — Graph

°F

Mostar Temperature Yesterday

Maximum temperature yesterday: 59 °F (at 5:00 pm)
Minimum temperature yesterday: 41 °F (at 2:00 am)
Average temperature yesterday: 50 °F

High & Low Weather Summary for the Past Weeks

 TemperatureHumidityPressure
High77 °F (Apr 14, 2:00 pm)100% (Apr 16, 11:00 am)30.27 "Hg (Apr 16, 11:00 am)
Low32 °F (Apr 22, 4:00 am)25% (Apr 9, 3:00 pm)29.65 "Hg (Apr 18, 9:00 pm)
Average54 °F57%29.99 "Hg
* Reported Apr 9 12:00 pm — Apr 24 12:00 pm, Mostar, Weather by CustomWeather, © 2017

Note: Actual official high and low records may vary slightly from our data, if they occured in-between our weather recording intervals... More about our weather records

Advertising

Mostar Weather History for the Previous 24 Hours

Scroll right to see more
 ConditionsComfort  
Time TempWeatherWind HumidityBarometerVisibility
12:00 pm
Mon, Apr 24
64 °FPassing clouds.3 mph30%30.12 "HgN/A
11:30 am61 °FSunny.3 mph34%30.15 "Hg10 mi
11:00 am59 °FSunny.3 mph34%30.15 "Hg10 mi
10:30 am57 °FSunny.3 mph39%30.15 "Hg10 mi
10:00 am55 °FSunny.3 mph41%30.15 "Hg10 mi
9:30 am54 °FSunny.3 mph47%30.15 "Hg10 mi
9:00 am50 °FSunny.3 mph54%30.18 "Hg10 mi
8:30 am48 °FPassing clouds.3 mph62%30.18 "HgN/A
8:00 am45 °FPassing clouds.3 mph71%30.18 "HgN/A
7:30 am41 °FSunny.2 mph81%30.18 "Hg10 mi
7:00 am39 °FSunny.3 mph87%30.15 "Hg10 mi
6:30 am36 °FSunny.6 mph87%30.15 "Hg10 mi
6:00 am32 °FSunny.5 mph93%30.15 "Hg10 mi
5:00 am36 °FPassing clouds.2 mph87%30.15 "HgN/A
4:00 am36 °FPassing clouds.2 mph87%30.15 "HgN/A
3:00 am39 °FPassing clouds.5 mph81%30.15 "HgN/A
2:00 am39 °FPassing clouds.3 mph81%30.15 "HgN/A
1:00 am43 °FPassing clouds.2 mph71%30.15 "HgN/A
12:00 am43 °FPassing clouds.3 mph76%30.15 "HgN/A
11:00 pm
Sun, Apr 23
45 °FPassing clouds.5 mph71%30.15 "HgN/A
10:00 pm48 °FPassing clouds.2 mph62%30.15 "HgN/A
9:00 pm50 °FPassing clouds.2 mph54%30.12 "HgN/A
8:00 pm55 °FPassing clouds.6 mph44%30.09 "HgN/A
7:00 pm57 °FScattered clouds.9 mph41%30.07 "HgN/A
6:00 pm59 °FPassing clouds.9 mph42%30.07 "HgN/A
5:00 pm59 °FScattered clouds.8 mph42%30.07 "HgN/A
4:00 pm57 °FScattered clouds.13 mph44%30.07 "HgN/A
3:00 pm57 °FPartly sunny.6 mph51%30.07 "HgN/A
2:00 pm57 °FPartly sunny.12 mph51%30.07 "HgN/A
1:30 pm54 °FBroken clouds.18 mph58%30.07 "HgN/A
1:00 pm54 °FPartly sunny.14 mph58%30.07 "HgN/A
Weather by CustomWeather, © 2017

See weather overviewHow to use our weather pages